Regional Weather Roundup
Issued by NWS State College, PA

Home | Current Version | Previous Version | Text Only | Print | Product List | Glossary Off
Versions: 1 2 3 4 5 6 7 8 9 10 11 12 13 14 15 16 17 18 19 20 21 22 23 24 25 26 27 28 29 30 31 32 33 34 35 36 37 38 39 40 41 42 43 44 45 46 47 48 49 50

000
ASUS41 KCTP 302110
RWRCTP

REGIONAL WEATHER ROUNDUP
NATIONAL WEATHER SERVICE STATE COLLEGE PA
500 PM EDT THU JUL 30 2015

Note: "fair" indicates few or no clouds below 12,000 feet with no
significant weather and/or obstructions to visibility.

* = STATION THAT DOES NOT REPORT PRECIPITATION /E.G. RAIN...SNOW...ETC/
    THUNDER OR FOG.

PAZ002>004-007>009-013>016-020>023-029>032-302200-
WESTERN PENNSYLVANIA

CITY           SKY/WX    TMP DP  RH WIND       PRES   REMARKS
ERIE           SUNNY     81  62  52 W14G26    29.93S
MEADVILLE      SUNNY     83  51  33 W14G21    29.96S
FRANKLIN*      MOSUNNY   81  55  41 W15G21    29.97S
NEW CASTLE     MOCLDY    85  59  41 W7        29.96S
BEAVER COUNTY  MOSUNNY   84  55  37 W14       29.96S
BUTLER*        SUNNY     84  57  39 NW9       29.97S
PITTSBURGH INT MOSUNNY   86  53  32 NW15      29.95S
PITTSBURGH     SUNNY     84  50  30 W15G21    29.94S
INDIANA*       SUNNY     84  57  39 W12G20    29.96S
LATROBE        MOSUNNY   86  55  35 NW14      29.94S
WASHINGTON CO* NOT AVBL
$$

PAZ004>006-010>012-017>019-024>028-033>037-041-042-045-046-049>053-302200-
CENTRAL PENNSYLVANIA

CITY           SKY/WX    TMP DP  RH WIND       PRES   REMARKS
BRADFORD       SUNNY     78  53  41 W14G22    29.95S
DUBOIS         SUNNY     82  56  40 W13G21    29.94S
CLEARFIELD     SUNNY     84  56  38 W14       29.92S
JOHNSTOWN      SUNNY     81  53  37 W12G25    29.97F
ALTOONA        MOSUNNY   84  57  39 W12G20    29.92F
STATE COLLEGE  MOSUNNY   84  59  42 W10       29.89F
WILLIAMSPORT   MOSUNNY   88  58  36 W9        29.81S
SELINSGROVE    MOSUNNY   86  64  47 NW6       29.83F
FT INDIANTOWN  MOSUNNY   87  66  50 W12       29.83F
CAPITAL CITY   MOSUNNY   89  61  38 N10G22    29.83F
HARRISBURG     PTSUNNY   88  65  46 NW15      29.82F
YORK           PTSUNNY   86  77  74 CALM      29.84F HX  97
$$

PAZ038>040-043-044-047-048-054-055-060>062-067>071-302200-
EASTERN PENNSYLVANIA

CITY           SKY/WX    TMP DP  RH WIND       PRES   REMARKS
SCRANTON       PTSUNNY   84  67  56 NW9       29.82F
MOUNT POCONO   MOSUNNY   81  64  56 W12       29.87S
ALLENTOWN      PTSUNNY   82  74  76 SW9       29.81F
QUAKERTOWN*    CLOUDY    77  75  94 SW8       29.83F
READING        PTSUNNY   82  74  76 SW8       29.81F
LANCASTER      PTSUNNY   82  75  79 S3        29.83F
COATESVILLE    CLOUDY    75  75 100 SW3       29.86F
POTTSTOWN      CLOUDY    76  73  91 SW8       29.84F
BLUE BELL      CLOUDY    77  73  88 W3        29.83S
DOYLESTOWN     LGT RAIN  75  72  90 SW5       29.82F
WILLOW GROVE   NOT AVBL
NORTH PHILA    LGT RAIN  78  70  76 SW7       29.84F
PHILADELPHIA   TSTM      77  72  84 SW12      29.85R
$$



USA.gov is the U.S. government's official web portal to all federal, state and local government web resources and services.